FW2218 Weather Reports


Display with metric or nautical units.
time (UTC)temp
F
wind
direction
speed
MPH
gust
MPH
rain 1hr
in
rain 24hr
in
rain mn
in
humidity
%
barometer
mb
20260905184530 68 284 1.0 4.0 0.00 0.01 0.00 60 1012.7
20260905183105 69 313 1.0 3.0 0.00 0.01 0.00 59 1012.7
20260905181602 67 325 1.0 4.0 0.00 0.01 0.00 63 1012.9
20260905174606 64 285 0.0 3.0 0.00 0.01 0.00 68 1013.0
20260905173030 64 322 3.0 4.0 0.00 0.01 0.00 69 1013.0
20260905171530 62 39 0.0 3.0 0.00 0.01 0.00 72 1013.1
20260905170109 61 1 1.0 4.0 0.00 0.01 0.00 75 1013.1
20260905164530 60 14 3.0 5.0 0.00 0.01 0.00 76 1013.1
20260905163107 59 22 1.0 4.0 0.00 0.01 0.00 77 1013.0
20260905161528 58 39 1.0 3.0 0.00 0.01 0.00 78 1013.0
20260905160031 57 90 1.0 3.0 0.00 0.01 0.00 79 1013.0
20260905154540 57 107 2.0 4.0 0.00 0.01 0.00 79 1013.0
20260905153031 56 102 1.0 3.0 0.00 0.01 0.00 80 1012.9
20260905151531 56 111 3.0 4.0 0.00 0.01 0.00 80 1012.9
20260905150031 56 109 3.0 4.0 0.00 0.01 0.00 80 1012.9
20260905144530 56 105 2.0 5.0 0.00 0.01 0.00 81 1012.8
20260905143030 55 108 2.0 4.0 0.00 0.01 0.00 82 1012.8
20260905141532 55 112 3.0 6.0 0.00 0.01 0.00 83 1012.6
20260905140031 55 113 4.0 7.0 0.00 0.01 0.00 85 1012.5
20260905134531 55 111 4.0 6.0 0.00 0.01 0.00 86 1012.2
20260905133032 55 90 2.0 4.0 0.00 0.01 0.00 86 1012.0
20260905131530 55 93 2.0 3.0 0.00 0.01 0.00 85 1012.0
20260905124533 55 112 2.0 3.0 0.00 0.01 0.00 84 1012.0
20260905123030 55 112 2.0 4.0 0.00 0.01 0.00 82 1011.9
20260905121529 56 112 2.0 4.0 0.00 0.01 0.00 82 1011.9
20260905120029 56 112 2.0 4.0 0.00 0.01 0.00 82 1011.9
20260905114532 56 112 3.0 4.0 0.00 0.01 0.00 83 1011.9
20260905111533 56 111 2.0 4.0 0.00 0.01 0.00 83 1011.8
20260905101536 57 74 2.0 3.0 0.00 0.01 0.00 80 1011.7
20260905100037 57 33 1.0 3.0 0.00 0.01 0.00 79 1011.7
20260905094531 57 181 0.0 3.0 0.00 0.01 0.00 77 1011.8
20260905093033 58 211 0.0 0.0 0.00 0.01 0.00 76 1011.7
20260905090030 58 181 1.0 3.0 0.00 0.01 0.00 74 1011.5
20260905084531 58 161 1.0 4.0 0.00 0.01 0.00 76 1011.5
20260905081536 58 270 0.0 0.0 0.00 0.01 0.00 79 1011.4
20260905080104 58 270 0.0 0.0 0.00 0.01 0.00 78 1011.3
20260905074537 58 273 0.0 4.0 0.00 0.01 0.00 78 1011.2
20260905073028 58 284 0.0 4.0 0.00 0.01 0.00 78 1011.0
20260905070039 58 286 0.0 4.0 0.00 0.01 0.00 77 1010.8
20260905064531 58 339 2.0 6.0 0.00 0.01 0.01 77 1010.7
20260905063036 58 332 1.0 7.0 0.00 0.01 0.01 77 1010.5
20260905061531 58 69 0.0 3.0 0.00 0.01 0.01 77 1010.5
20260905060033 58 131 0.0 1.0 0.00 0.01 0.01 76 1010.5
20260905054647 59 174 1.0 2.0 0.00 0.01 0.01 74 1010.4
20260905053031 59 281 0.0 4.0 0.00 0.01 0.01 72 1010.3
20260905051611 60 319 1.0 3.0 0.00 0.01 0.01 70 1010.3
20260905044537 61 222 2.0 4.0 0.00 0.01 0.01 64 1010.0
20260905043032 61 210 2.0 4.0 0.00 0.01 0.01 63 1010.0
20260905041539 61 218 2.0 5.0 0.00 0.01 0.01 64 1010.0
20260905040036 61 191 2.0 5.0 0.00 0.01 0.01 65 1009.9
20260905034538 61 206 2.0 5.0 0.00 0.01 0.01 66 1009.6
20260905033030 62 215 2.0 5.0 0.00 0.01 0.01 65 1009.5
20260905024611 62 293 1.0 6.0 0.00 0.01 0.01 66 1009.3
20260905023033 63 282 2.0 7.0 0.00 0.05 0.01 62 1009.3
20260905021532 65 274 3.0 6.0 0.00 0.07 0.01 59 1009.2
20260905020031 66 275 4.0 8.0 0.00 0.07 0.01 57 1008.9
20260905013038 68 255 6.0 11.0 0.00 0.08 0.01 57 1008.5
20260905011530 68 267 6.0 13.0 0.00 0.08 0.01 58 1008.4
20260905010106 67 277 5.0 11.0 0.00 0.08 0.01 59 1008.2
20260905004606 65 281 4.0 7.0 0.00 0.08 0.01 62 1008.2
20260905003032 65 303 3.0 6.0 0.00 0.08 0.01 62 1008.3
20260905000035 64 3 3.0 7.0 0.01 0.09 0.01 69 1008.4
20260904234532 64 90 3.0 5.0 0.01 0.10 0.01 65 1008.6
20260904233029 67 119 5.0 9.0 0.01 0.10 0.00 52 1008.4
20260904231533 69 218 4.0 9.0 0.00 0.09 0.00 52 1007.7
20260904224532 71 235 3.0 7.0 0.00 0.09 0.00 48 1007.6
20260904223037 72 258 3.0 7.0 0.00 0.09 0.00 47 1007.5
20260904221536 72 300 3.0 8.0 0.00 0.09 0.00 46 1007.5
20260904214538 73 293 3.0 7.0 0.00 0.09 0.00 45 1007.6
20260904213031 74 307 3.0 7.0 0.00 0.09 0.00 45 1007.6
20260904204609 71 324 3.0 6.0 0.00 0.09 0.00 47 1007.7
20260904203029 73 324 2.0 6.0 0.00 0.09 0.00 47 1007.8
20260904200030 71 272 3.0 10.0 0.00 0.09 0.00 50 1008.1
20260904194527 70 285 3.0 6.0 0.00 0.09 0.00 53 1008.2
20260904193029 69 293 3.0 6.0 0.00 0.09 0.00 54 1008.5
20260904191531 70 263 3.0 9.0 0.00 0.09 0.00 54 1008.6
20260904190031 70 278 3.0 8.0 0.00 0.09 0.00 56 1008.6